Redmond, OR

9:36 PM PDT on September 26, 2016 (GMT -0700)
Roberts Field Airport

Weather History for KRDM - December, 2011

Change the Weather History Date:

Saturday, December 10, 2011

  Actual Average Record
Temperature  
Mean Temperature 34 °F 31 °F  
Max Temperature 54 °F 41 °F 60 °F (2014)
Min Temperature 13 °F 21 °F -25 °F (1972)
Degree Days  
Heating Degree Days 31 34  
Month to date heating degree days 351 336  
Since 1 July heating degree days 2024 2110  
Cooling Degree Days 0 0  
Month to date cooling degree days 0 0  
Year to date cooling degree days 155 222  
Moisture  
Dew Point 13 °F    
Average Humidity 54    
Maximum Humidity 88    
Minimum Humidity 20    
Precipitation  
Precipitation 0.00 in 0.03 in 0.63 in (1948)
Month to date precipitation 0.00 0.39  
Year to date precipitation 5.89 8.13  
Sea Level Pressure  
Sea Level Pressure 30.11 in    
Wind  
Wind Speed 3 mph (ENE)    
Max Wind Speed 12 mph    
Max Gust Speed 18 mph    
Visibility 10 miles    
Events      
T = Trace of Precipitation, MM = Missing Value Source: NWS Daily Summary

Daily Weather History Graph

Daily Weather History Graph

Search for Another Location

Airport or City:

Trip Planner

Search our weather history database for the weather conditions in past years. The results will help you decide how hot, cold, wet, or windy it might be!

Date:

Astronomy

Dec. 10, 2011 Rise Set
Actual Time 7:29 AM PST 4:25 PM PST
Civil Twilight 6:56 AM PST 4:58 PM PST
Nautical Twilight 6:19 AM PST 5:35 PM PST
Astronomical Twilight 5:44 AM PST 6:10 PM PST
Moon 4:43 PM PST (12/10) 7:34 AM PST (12/10)
Length of Visible Light 10h 02m
Length of Day
8h 56m
Full, 100% of the Moon is Illuminated
Dec 10
Full
Dec 17
Last Quarter
Dec 24
New
Dec 31
First Quarter
Jan 8
Full

Hourly Weather History & Observations

Time (PST) Temp. Windchill Dew Point Humidity Pressure Visibility Wind Dir Wind Speed Gust Speed Precip Events Conditions
12:56 AM 19.0 °F 12.3 °F 12.9 °F 77% 30.23 in 10.0 mi ESE 4.6 mph - N/A   Clear
1:56 AM 17.1 °F - 10.9 °F 77% 30.22 in 10.0 mi Calm Calm - N/A   Clear
2:56 AM 17.1 °F - 10.9 °F 77% 30.21 in 10.0 mi Calm Calm - N/A   Clear
3:56 AM 30.0 °F 25.2 °F 15.1 °F 54% 30.18 in 10.0 mi Variable 4.6 mph - N/A   Clear
4:56 AM 24.1 °F 16.0 °F 12.9 °F 62% 30.20 in 10.0 mi ENE 6.9 mph - N/A   Clear
5:56 AM 23.0 °F 14.7 °F 12.9 °F 65% 30.21 in 10.0 mi SE 6.9 mph - N/A   Clear
6:56 AM 25.0 °F 19.3 °F 12.9 °F 60% 30.21 in 10.0 mi ESE 4.6 mph - N/A   Clear
7:56 AM 16.0 °F 10.4 °F 10.0 °F 77% 30.23 in 10.0 mi ENE 3.5 mph - N/A   Clear
8:56 AM 32.0 °F 28.7 °F 16.0 °F 52% 30.21 in 10.0 mi East 3.5 mph - N/A   Clear
9:56 AM 37.9 °F 35.5 °F 16.0 °F 41% 30.18 in 10.0 mi ENE 3.5 mph - N/A   Clear
10:56 AM 46.0 °F 43.9 °F 15.1 °F 29% 30.14 in 10.0 mi NNE 4.6 mph - N/A   Clear
11:56 AM 50.0 °F - 14.0 °F 24% 30.09 in 10.0 mi Calm Calm - N/A   Clear
12:56 PM 52.0 °F - 12.9 °F 21% 30.05 in 10.0 mi Variable 3.5 mph - N/A   Clear
1:56 PM 53.1 °F - 14.0 °F 21% 30.04 in 10.0 mi NW 5.8 mph - N/A   Clear
2:56 PM 53.1 °F - 14.0 °F 21% 30.02 in 10.0 mi NE 4.6 mph - N/A   Clear
3:56 PM 48.0 °F - 14.0 °F 26% 30.00 in 10.0 mi Calm Calm - N/A   Clear
4:56 PM 37.9 °F 35.5 °F 12.9 °F 36% 30.03 in 10.0 mi East 3.5 mph - N/A   Clear
5:56 PM 37.0 °F 33.3 °F 12.9 °F 37% 30.04 in 10.0 mi NE 4.6 mph - N/A   Clear
6:56 PM 30.0 °F - 12.0 °F 47% 30.04 in 10.0 mi Calm Calm - N/A   Clear
7:56 PM 34.0 °F 29.8 °F 14.0 °F 44% 30.05 in 10.0 mi NE 4.6 mph - N/A   Clear
8:56 PM 30.9 °F 27.5 °F 14.0 °F 50% 30.01 in 10.0 mi NE 3.5 mph - N/A   Clear
9:56 PM 28.9 °F - 14.0 °F 54% 30.01 in 10.0 mi Calm Calm - N/A   Clear
10:56 PM 21.9 °F - 12.0 °F 66% 30.00 in 10.0 mi Calm Calm - N/A   Clear
11:56 PM 21.9 °F - 12.0 °F 66% 30.00 in 10.0 mi Calm Calm - N/A   Clear